User: anonymous   Login
Location: Caltech
(34.1382°N, 118.1253°W)
Time: 18:52:53
(UTC-07:00)
Language:

Saudisat 1A - Orbit

View from above orbital plane
View from above orbital plane
View from above satellite
View from above satellite

Ground track
Ground track

The orbit data is extracted from the following two-line orbital elements,

1 26546U 00057B   16241.80859383  .00000178  00000-0  34377-4 0  9997
2 26546  64.5547 170.2969 0047492 259.9448  99.6301 14.90297574863088
Epoch (UTC): 28 August 2016 19:24:22
Eccentricity: 0.0047492
inclination: 64.5547°
perigee height: 564 km
apogee height: 630 km
right ascension of ascending node: 170.2969°
argument of perigee: 259.9448°
revolutions per day: 14.90297574
mean anomaly at epoch: 99.6301°
orbit number at epoch: 86308

The dashed part of the orbit path shows where the satellite is in the earth's shadow,  

DLR